Powrót do katalogu

STARLINK-36563

AktywnyŁącznośćSSO
NORAD 67550·PAYLOAD·🇺🇸 United States

Wystrzelony Jan 22, 2026 z Vandenberg Space Force Base

Loading…

Następne Przeloty (najbliższe 24 godziny)

TLE

ŚwieżeSource: CelesTrak SupGP

Epoka: Sep 14, 2026, 23:09 UTC

1 67550C 26014U   26257.96506944  .00046805  00000+0  14536-2 0  2571
2 67550  97.2847 143.4830 0001720  90.8307 314.7650 15.33400367    11

Śledź STARLINK-36563 w czasie rzeczywistym z AllMySat

Download on the App Store